Aeroporto :
LOGIN :

Iscrizione | Disclaimer

   EN    FR    IT 

 










Sommario :    VFR   VFR Marginale   IFR   IFR Intensivo   IFR Molto Intensivo
Visibilità : 
Base nubi : 
>= 8 km
>= 3000ft
5 / 8 km
1000 / 3000 ft
1500m / 5 km
500 / 1000 ft
800 / 1500m
200 / 500 ft
< 800m
< 200 ft
Simboli :   Temporali  Nebbia  Neve Forte  Precipitazioni Forti  Vento > 20 kt
SIGMETs :   Varie  Temporali  Ghiacco  Turbolenza  Onda orograficha  Ceneri Vulcaniche






- Altitudine del aeroporto : 396 ft


LFOZ - Orléans St Denis

ULTIMO METAR :
  • 042130Z AUTO 30005KT 9999 FEW019 OVC070 12/09 Q1004

METARs OBSOLETI :
  • 042100Z AUTO 30006KT 9999 OVC039 13/09 Q1004
  • 042030Z AUTO 31005KT 9999 BKN040 OVC047 13/10 Q1004
  • 042000Z AUTO 31007KT 9999 BKN039 OVC045 13/10 Q1003
  • 041930Z AUTO 31007KT 270V330 9999 SCT017 BKN039 BKN048 13/10 Q1003
  • 041900Z AUTO 31006KT 280V340 9999 FEW038 OVC064 13/10 Q1003
  • 041830Z AUTO 32010KT 290V350 9999 FEW016 SCT021 BKN031 13/10 Q1003

TAF N/A



MetMap, La meteo Aeronautica in un colpo d'occhio ! - Copyright ORBIFLY Dicembre 2007 - Disclaimer

ORBIFLY MET'MAP TEAM :

Programmazione e sviluppo : Alexandra Zaïnal
Concezione : Baudouin d'Aumeries
Aiuto per la programmazione : Marc-Olivier Méhu
Supporto tecnico e logistico : Manuel Goepfert
Aiuto per la traduzione : Arnaldo La Scala

Contatto : metmap@orbifly.com




FONTI E CREDITI :

   NOAA